When you browse on this site, cookies collect data to enhance your experience and personalize the content and advertising you see.
Visit our Privacy Policy to learn more. By continuing to use the site, you agree to this use of cookies and data.
  • In United Kingdom
  • List of Countries
  • For 7 days
  • Water Temperature
  • Satellite Maps
  • Weather Map
  • Weather Widgets
  • user-avatar
    Login

    Hourly Weather Oshurga

    Today, 24 January, Thursday

    Time Temperature Precipitation Wind Pressure Humidity
    00:00 -23°C° 0 mm 2 mps 756 mmHg 99%
    01:00 -24°C° 0 mm 2 mps 757 mmHg 98%
    02:00 -24°C° 0 mm 2 mps 757 mmHg 98%
    03:00 -24°C° 0 mm 2 mps 757 mmHg 98%
    04:00 -24°C° 0 mm 2 mps 757 mmHg 97%
    05:00 -24°C° 0 mm 2 mps 757 mmHg 96%
    06:00 -25°C° 0 mm 3 mps 756 mmHg 96%
    07:00 -25°C° 0 mm 3 mps 756 mmHg 95%
    08:00 -25°C° 0 mm 3 mps 756 mmHg 94%
    09:00 -24°C° 0 mm 3 mps 756 mmHg 93%
    10:00 -23°C° 0 mm 3 mps 756 mmHg 91%
    11:00 -22°C° 0 mm 3 mps 756 mmHg 89%
    12:00 -20°C° 0 mm 4 mps 755 mmHg 87%
    13:00 -20°C° 0 mm 4 mps 755 mmHg 87%
    14:00 -19°C° 0 mm 4 mps 754 mmHg 87%
    15:00 -19°C° 0 mm 4 mps 753 mmHg 86%
    16:00 -18°C° 0.2 mm 4 mps 753 mmHg 89%
    17:00 -18°C° 0.2 mm 4 mps 752 mmHg 91%
    18:00 -18°C° 0.2 mm 4 mps 752 mmHg 93%
    19:00 -18°C° 0.2 mm 4 mps 751 mmHg 93%
    20:00 -18°C° 0.2 mm 4 mps 750 mmHg 93%
    21:00 -17°C° 0.2 mm 3 mps 750 mmHg 93%
    22:00 -16°C° 0.1 mm 2 mps 749 mmHg 95%
    23:00 -17°C° 0.1 mm 2 mps 749 mmHg 96%

    Tomorrow, 25 January, Friday

    Time Temperature Precipitation Wind Pressure Humidity
    00:00 -15°C° 0.1 mm 1 mps 748 mmHg 97%
    01:00 -15°C° 0.1 mm 1 mps 748 mmHg 97%
    02:00 -16°C° 0.1 mm 0 mps 748 mmHg 97%
    03:00 -16°C° 0.1 mm 0 mps 748 mmHg 97%
    04:00 -17°C° 0 mm 1 mps 748 mmHg 98%
    05:00 -17°C° 0 mm 1 mps 748 mmHg 98%
    06:00 -20°C° 0 mm 2 mps 748 mmHg 98%
    07:00 -20°C° 0 mm 2 mps 749 mmHg 97%
    08:00 -22°C° 0 mm 3 mps 750 mmHg 97%
    09:00 -22°C° 0 mm 3 mps 750 mmHg 96%
    10:00 -21°C° 0 mm 3 mps 751 mmHg 95%
    11:00 -21°C° 0 mm 3 mps 752 mmHg 93%
    12:00 -22°C° 0 mm 4 mps 752 mmHg 92%
    13:00 -21°C° 0 mm 3 mps 753 mmHg 92%
    14:00 -21°C° 0 mm 3 mps 753 mmHg 93%
    15:00 -21°C° 0 mm 3 mps 754 mmHg 93%
    16:00 -21°C° 0 mm 3 mps 754 mmHg 94%
    17:00 -22°C° 0 mm 3 mps 755 mmHg 95%
    18:00 -22°C° 0 mm 3 mps 756 mmHg 96%
    19:00 -23°C° 0 mm 3 mps 756 mmHg 97%
    20:00 -21°C° 0 mm 2 mps 757 mmHg 98%
    21:00 -23°C° 0 mm 2 mps 757 mmHg 98%
    22:00 -24°C° 0 mm 2 mps 758 mmHg 98%
    23:00 -24°C° 0 mm 2 mps 758 mmHg 99%

    Day after tomorrow, 26 January, Saturday

    Time Temperature Precipitation Wind Pressure Humidity
    00:00 -25°C° 0 mm 2 mps 758 mmHg 99%
    01:00 -25°C° 0 mm 2 mps 759 mmHg 99%
    02:00 -25°C° 0 mm 2 mps 759 mmHg 99%
    03:00 -26°C° 0 mm 2 mps 759 mmHg 99%
    04:00 -26°C° 0 mm 2 mps 759 mmHg 99%
    05:00 -26°C° 0 mm 2 mps 760 mmHg 99%
    06:00 -23°C° 0 mm 1 mps 760 mmHg 99%
    07:00 -23°C° 0 mm 1 mps 760 mmHg 99%
    08:00 -22°C° 0 mm 1 mps 760 mmHg 99%
    09:00 -22°C° 0 mm 1 mps 761 mmHg 99%
    10:00 -21°C° 0 mm 1 mps 761 mmHg 97%
    11:00 -19°C° 0 mm 1 mps 761 mmHg 95%
    12:00 -17°C° 0 mm 1 mps 761 mmHg 93%
    13:00 -17°C° 0 mm 1 mps 761 mmHg 93%
    14:00 -17°C° 0 mm 1 mps 761 mmHg 94%
    15:00 -18°C° 0 mm 2 mps 760 mmHg 94%
    16:00 -19°C° 0 mm 2 mps 760 mmHg 94%
    17:00 -19°C° 0 mm 2 mps 760 mmHg 93%
    18:00 -22°C° 0 mm 3 mps 760 mmHg 93%
    19:00 -21°C° 0 mm 3 mps 760 mmHg 91%
    20:00 -22°C° 0 mm 4 mps 759 mmHg 89%
    21:00 -20°C° 0 mm 4 mps 759 mmHg 87%
    22:00 -20°C° 0 mm 4 mps 759 mmHg 86%
    23:00 -21°C° 0 mm 5 mps 758 mmHg 85%

    27 January, Sunday

    Time Temperature Precipitation Wind Pressure Humidity
    00:00 -20°C° 0 mm 5 mps 758 mmHg 84%
    01:00 -20°C° 0 mm 5 mps 758 mmHg 82%
    02:00 -20°C° 0 mm 5 mps 757 mmHg 80%
    03:00 -20°C° 0 mm 5 mps 757 mmHg 78%
    04:00 -21°C° 0 mm 6 mps 757 mmHg 77%
    05:00 -21°C° 0 mm 6 mps 756 mmHg 76%
    06:00 -20°C° 0 mm 6 mps 756 mmHg 76%
    07:00 -20°C° 0 mm 6 mps 755 mmHg 76%
    08:00 -20°C° 0 mm 6 mps 755 mmHg 77%
    09:00 -20°C° 0 mm 6 mps 755 mmHg 77%
    10:00 -18°C° 0 mm 6 mps 754 mmHg 79%
    11:00 -18°C° 0 mm 6 mps 754 mmHg 81%
    12:00 -18°C° 0 mm 6 mps 754 mmHg 82%
    13:00 -17°C° 0 mm 5 mps 753 mmHg 85%
    14:00 -17°C° 0 mm 5 mps 752 mmHg 87%
    15:00 -17°C° 0 mm 5 mps 752 mmHg 89%
    16:00 -17°C° 0 mm 5 mps 752 mmHg 89%
    17:00 -15°C° 0 mm 5 mps 751 mmHg 89%
    18:00 -15°C° 0 mm 5 mps 751 mmHg 89%
    19:00 -15°C° 0 mm 5 mps 751 mmHg 89%
    20:00 -15°C° 0 mm 5 mps 750 mmHg 89%
    21:00 -15°C° 0 mm 6 mps 750 mmHg 89%
    22:00 -15°C° 0 mm 5 mps 750 mmHg 90%
    23:00 -15°C° 0 mm 5 mps 749 mmHg 90%

    28 January, Monday

    Time Temperature Precipitation Wind Pressure Humidity
    00:00 -15°C° 0 mm 5 mps 749 mmHg 90%
    01:00 -15°C° 0 mm 5 mps 749 mmHg 90%
    02:00 -15°C° 0 mm 5 mps 749 mmHg 91%
    03:00 -15°C° 0 mm 5 mps 749 mmHg 91%
    04:00 -15°C° 0 mm 5 mps 749 mmHg 91%
    05:00 -17°C° 0 mm 5 mps 748 mmHg 91%
    06:00 -17°C° 0 mm 5 mps 748 mmHg 91%
    07:00 -17°C° 0 mm 5 mps 748 mmHg 91%
    08:00 -17°C° 0 mm 5 mps 749 mmHg 91%
    09:00 -17°C° 0 mm 5 mps 749 mmHg 91%
    10:00 -16°C° 0 mm 4 mps 749 mmHg 91%
    11:00 -15°C° 0 mm 4 mps 749 mmHg 92%
    12:00 -15°C° 0 mm 4 mps 749 mmHg 92%
    13:00 -14°C° 0 mm 3 mps 749 mmHg 92%
    14:00 -14°C° 0 mm 3 mps 749 mmHg 93%
    15:00 -14°C° 0 mm 3 mps 749 mmHg 93%
    16:00 -14°C° 0 mm 3 mps 749 mmHg 94%
    17:00 -14°C° 0 mm 2 mps 749 mmHg 95%
    18:00 -15°C° 0 mm 2 mps 749 mmHg 95%
    19:00 -15°C° 0 mm 2 mps 750 mmHg 95%
    20:00 -14°C° 0 mm 2 mps 750 mmHg 96%
    21:00 -12°C° 0 mm 1 mps 750 mmHg 96%
    22:00 -12°C° 0 mm 1 mps 750 mmHg 96%
    23:00 -12°C° 0 mm 1 mps 750 mmHg 96%

    29 January, Tuesday

    Time Temperature Precipitation Wind Pressure Humidity
    00:00 -11°C° 0 mm 0 mps 750 mmHg 96%
    01:00 -11°C° 0 mm 0 mps 751 mmHg 96%
    02:00 -11°C° 0 mm 0 mps 751 mmHg 96%
    03:00 -11°C° 0 mm 1 mps 751 mmHg 96%
    04:00 -10°C° 0 mm 0 mps 751 mmHg 96%
    05:00 -10°C° 0 mm 0 mps 751 mmHg 96%
    06:00 -10°C° 0 mm 0 mps 751 mmHg 95%
    07:00 -10°C° 0 mm 1 mps 752 mmHg 95%
    08:00 -9°C° 0 mm 1 mps 752 mmHg 95%
    09:00 -9°C° 0 mm 1 mps 752 mmHg 94%
    10:00 -8°C° 0 mm 1 mps 752 mmHg 93%
    11:00 -8°C° 0 mm 0 mps 752 mmHg 92%
    12:00 -7°C° 0 mm 0 mps 752 mmHg 91%
    13:00 -7°C° 0 mm 0 mps 752 mmHg 91%
    14:00 -6°C° 0 mm 0 mps 753 mmHg 92%
    15:00 -6°C° 0 mm 1 mps 753 mmHg 92%
    16:00 -6°C° 0 mm 1 mps 753 mmHg 93%
    17:00 -7°C° 0 mm 1 mps 753 mmHg 95%
    18:00 -7°C° 0 mm 1 mps 753 mmHg 96%
    19:00 -7°C° 0 mm 1 mps 753 mmHg 96%
    20:00 -9°C° 0 mm 2 mps 752 mmHg 96%
    21:00 -9°C° 0 mm 2 mps 752 mmHg 96%
    22:00 -9°C° 0 mm 2 mps 752 mmHg 96%
    23:00 -10°C° 0 mm 3 mps 752 mmHg 96%
    Show more